[[{"header":{"parameterUnit":"m.s-1","parameterCategory":1,"la1":30.2991,"la2":30.254,"lo1":-89.0895,"lo2":-89.0444,"dy":0.0017,"dx":0.0017,"nx":28,"ny":28,"refTime":"2024-04-10T03:00:00:Z","depth":0,"parameterNumber":2,"parameterNumberName":"U-component_of_WINDS"},"data":[0,0,0,0,0,0,0,0,0,0,0,0,0,0,0,0,0,0,0,0,0,0,0,0,0,0,0,0,0,0,0,0,0,0,0,0,0,0,0,0,0,0,0,0,0,0,0,0,0,0,0,0,0,0,0,0,0,0,5.0011,5.0013,0,5.0177,5.0179,5.0181,5.0165,5.0162,5.016,5.0157,5.0329,5.0336,5.0342,0,0,0,0,0,0,0,0,0,0,0,0,0,4.9684,4.9691,5.0011,5.0013,5.0015,5.0177,5.0179,5.0181,5.0165,5.0162,5.0159,5.0156,5.0327,5.0335,5.0343,0,0,0,0,0,0,0,0,0,0,0,0,0,4.9836,4.9693,5.0011,5.0027,5.003,5.0176,5.0179,5.0182,5.0166,5.0162,5.0158,5.0155,5.0324,5.0334,5.0344,5.0486,0,0,5.0376,5.0381,0,0,0,0,0,0,0,0,4.9827,4.9848,5.0022,5.0026,5.003,5.0146,5.0127,5.0284,5.0167,5.0114,5.0157,5.0153,5.0271,5.0286,5.0325,5.0494,5.0501,5.0377,5.0383,5.0388,5.0391,0,0,0,0,0,0,0,4.9817,4.9841,5.0077,5.0025,5.003,5.0027,5.0044,5.0156,5.0213,5.0119,5.0118,5.0138,5.0273,5.0315,5.0329,5.0504,5.0377,5.0386,5.0393,5.0397,5.08,5.0804,0,0,0,0,0,0,4.9802,4.9832,5.0072,5.0082,4.9917,5.0036,5.0055,5.0113,5.0211,5.0223,5.0141,5.0136,5.0299,5.0317,5.0335,5.0509,5.0388,5.0398,5.0404,5.0796,5.0801,5.0806,0,0,0,0,0,0,4.9795,4.9824,5.0065,4.9957,4.9987,5.0046,5.011,5.0118,5.0161,5.0228,5.0238,5.0174,5.0297,5.0321,5.0449,5.0515,5.0402,5.0412,5.079,5.0797,5.0803,5.0857,0,0,0,0,0,0,4.9786,4.9821,4.9875,4.9958,4.9993,5.0175,5.0115,5.0124,5.0179,5.0174,5.0262,5.0273,5.0296,5.0434,5.046,5.0527,5.042,5.0785,5.0793,5.0801,5.085,5.0865,5.0878,0,0,0,0,0,4.9774,4.9883,4.9877,4.9906,5.0061,5.0179,5.0199,5.0223,5.0184,5.0239,5.0283,5.027,5.0504,5.0447,5.0476,5.0548,5.0781,5.0791,5.0801,5.0844,5.0862,5.0878,0,0,0,0,0,0,4.9805,4.9894,4.9889,5.0027,5.0096,5.0176,5.0245,5.0241,5.0322,5.0315,5.0342,5.0362,5.0492,5.0533,5.0468,5.0692,5.0637,5.0653,5.066,5.0678,5.0692,5.0679,5.0429,0,0,0,0,0,4.9828,4.9916,4.9989,5.0104,5.0139,5.0186,5.0238,5.0251,5.0323,5.0352,5.0405,5.0476,5.0566,5.0624,5.071,5.0856,5.0876,5.092,5.0934,5.0945,5.0959,5.1042,5.1063,5.0839,5.0839,5.0838,0,0,4.9877,4.9936,4.9989,5.0112,5.0166,5.0258,5.0211,5.0308,5.0377,5.0367,5.0492,5.0534,5.0615,5.0753,5.0817,5.0791,5.1026,5.0958,5.0967,5.0975,5.1054,5.1076,5.1094,5.0846,5.0844,5.0843,0,0,5.0011,5.0064,5.0167,5.0223,5.0306,5.0338,5.0363,5.0444,5.0472,5.0597,5.0593,5.0675,5.0829,5.0888,5.0937,5.1098,5.109,5.1126,5.1199,5.1279,5.1297,5.1313,5.1371,5.1392,5.1139,5.1139,5.1139,0,5.0061,5.0197,5.0221,5.032,5.0375,5.0372,5.0477,5.053,5.0638,5.0676,5.0646,5.0841,5.0895,5.1048,5.1088,5.1128,5.1159,5.1115,5.1292,5.1308,5.1323,5.138,5.1402,5.1143,5.1143,5.1142,5.1142,0,5.0255,5.035,5.0423,5.0527,5.0591,5.0693,5.0733,5.0795,5.0804,5.0839,5.0969,5.1034,5.1134,5.1172,5.118,5.1328,5.131,5.1286,5.1231,5.1348,5.1402,5.1423,5.1149,5.1147,5.1146,5.1145,0,0,5.0412,5.053,5.0556,5.0604,5.0697,5.0772,5.0875,5.0973,5.1026,5.1101,5.119,5.1321,5.1301,5.1357,5.1373,5.1444,5.1569,5.1412,5.1414,5.144,5.1738,5.1755,5.178,5.1565,5.1569,5.1572,5.1731,0,5.0556,5.0738,5.0764,5.0925,5.1014,5.1013,5.1104,5.1171,5.1208,5.129,5.133,5.1424,5.1389,5.1423,5.1493,5.1539,5.1629,5.1528,5.1649,5.1653,5.1628,5.1807,5.1826,5.1972,5.1752,5.1756,5.1758,0,5.0749,5.083,5.1,5.1083,5.1121,5.1201,5.1295,5.1373,5.1451,5.1473,5.1538,5.1546,5.1655,5.1597,5.1748,5.1679,5.173,5.176,5.1767,5.1779,5.1712,5.1825,5.2019,5.2042,5.1791,5.1789,5.1786,0,5.0848,5.0999,5.1121,5.1162,5.1262,5.1319,5.1363,5.1437,5.1496,5.1578,5.1617,5.1711,5.1762,5.1836,5.187,5.1824,5.202,5.1964,5.2043,5.2042,5.2084,5.2081,5.229,5.2116,5.2116,5.2115,5.2115,0,5.1007,5.1111,5.1167,5.1242,5.136,5.139,5.1506,5.1549,5.1615,5.17,5.1705,5.1785,5.1825,5.1911,5.1938,5.2061,5.2084,5.2106,5.2112,5.2106,5.2103,5.214,5.2131,5.2121,5.212,5.2119,5.2118,0,5.1137,5.1178,5.1311,5.1395,5.1419,5.1503,5.1575,5.1649,5.1686,5.1793,5.182,5.1878,5.1981,5.2022,5.2147,5.2166,5.2307,5.2305,5.2281,5.2283,5.2359,5.2352,5.2599,5.2634,5.2437,5.2439,5.244,0,5.1235,5.1316,5.1409,5.1466,5.1512,5.1604,5.1664,5.1698,5.176,5.1857,5.1919,5.2021,5.2105,5.2268,5.2323,5.2419,5.242,5.25,5.2434,5.2426,5.2423,5.2418,5.2427,5.2512,5.2514,5.2516,5.2517,0,5.1407,5.1424,5.151,5.1604,5.1676,5.1751,5.1825,5.1872,5.1917,5.1988,5.2092,5.2157,5.2286,5.2388,5.2488,5.2535,5.2535,5.2538,5.2561,5.2555,5.2538,5.255,5.2314,5.2531,5.253,5.2529,5.2528,5.2528,5.1525,5.1597,5.1675,5.1771,5.1831,5.19,5.1974,5.2021,5.2109,5.2216,5.2231,5.2343,5.2422,5.2556,5.2608,5.2698,5.2677,5.2711,5.272,5.2728,5.2733,5.2524,5.2716,5.2716,5.2715,5.2715,5.2715,0,5.1698,5.1748,5.1836,5.194,5.2017,5.2009,5.2092,5.2157,5.2255,5.2329,5.2411,5.2533,5.2632,5.2696,5.2797,5.2856,5.2859,5.2882,5.2878,5.2889,5.2745,5.2715,5.2878,5.2878,5.2878,5.2878,5.2878,5.2878,5.1796,5.1919,5.1946,5.2099,5.2149,5.2259,5.2307,5.2372,5.2431,5.2566,5.2649,5.269,5.276,5.2867,5.2959,5.2975,5.3012,5.3037,5.3052,5.2916,5.2899,5.2883,5.2855,5.3045,5.3045,5.3189,5.319,5.3191]},{"header":{"parameterUnit":"m.s-1","parameterCategory":1,"la1":30.2991,"la2":30.254,"lo1":-89.0895,"lo2":-89.0444,"dy":0.0017,"dx":0.0017,"nx":28,"ny":28,"refTime":"2024-04-10T03:00:00:Z","depth":0,"parameterNumber":3,"parameterNumberName":"V-component_of_WINDS"},"data":[0,0,0,0,0,0,0,0,0,0,0,0,0,0,0,0,0,0,0,0,0,0,0,0,0,0,0,0,0,0,0,0,0,0,0,0,0,0,0,0,0,0,0,0,0,0,0,0,0,0,0,0,0,0,0,0,0,0,-5.7566,-5.7568,0,-5.7718,-5.7719,-5.7721,-5.7695,-5.7692,-5.7689,-5.7687,-5.7839,-5.7845,-5.7852,0,0,0,0,0,0,0,0,0,0,0,0,0,-5.7253,-5.7259,-5.7566,-5.7568,-5.757,-5.7717,-5.7719,-5.7721,-5.7695,-5.7692,-5.7689,-5.7686,-5.7837,-5.7845,-5.7853,0,0,0,0,0,0,0,0,0,0,0,0,0,-5.7395,-5.726,-5.7566,-5.7574,-5.7577,-5.7717,-5.7719,-5.7722,-5.7696,-5.7692,-5.7688,-5.7684,-5.7834,-5.7844,-5.7854,-5.7994,0,0,-5.7883,-5.7888,0,0,0,0,0,0,0,0,-5.7387,-5.7406,-5.7571,-5.7574,-5.7577,-5.7683,-5.7665,-5.7813,-5.7697,-5.765,-5.7687,-5.7682,-5.779,-5.7803,-5.784,-5.8001,-5.8007,-5.7884,-5.789,-5.7895,-5.7897,0,0,0,0,0,0,0,-5.7377,-5.74,-5.7626,-5.7574,-5.7577,-5.757,-5.7586,-5.7693,-5.7741,-5.7654,-5.7653,-5.7671,-5.7791,-5.7831,-5.7844,-5.8009,-5.7884,-5.7893,-5.7899,-5.7903,-5.8294,-5.8298,0,0,0,0,0,0,-5.7365,-5.7392,-5.7621,-5.763,-5.747,-5.7579,-5.7597,-5.7653,-5.774,-5.7749,-5.7674,-5.7669,-5.7816,-5.7832,-5.7849,-5.802,-5.7894,-5.7904,-5.7909,-5.8289,-5.8295,-5.8299,0,0,0,0,0,0,-5.7358,-5.7385,-5.7615,-5.7511,-5.7539,-5.7589,-5.7652,-5.7658,-5.7698,-5.7755,-5.7763,-5.7707,-5.7814,-5.7835,-5.7958,-5.8025,-5.7908,-5.7917,-5.8284,-5.8291,-5.8297,-5.8361,0,0,0,0,0,0,-5.7349,-5.7383,-5.7437,-5.7512,-5.7545,-5.7722,-5.7656,-5.7664,-5.7715,-5.771,-5.7787,-5.7796,-5.7812,-5.7944,-5.7968,-5.8036,-5.7925,-5.8278,-5.8287,-5.8295,-5.8354,-5.8369,-5.8383,0,0,0,0,0,-5.7338,-5.7448,-5.744,-5.7468,-5.7614,-5.7726,-5.7745,-5.7762,-5.7721,-5.7775,-5.7812,-5.7794,-5.8013,-5.7957,-5.7984,-5.8055,-5.8274,-5.8284,-5.8294,-5.8347,-5.8366,-5.8383,0,0,0,0,0,0,-5.7378,-5.7458,-5.745,-5.7588,-5.7651,-5.7721,-5.7791,-5.7782,-5.7857,-5.7849,-5.7866,-5.7884,-5.8009,-5.8045,-5.798,-5.8196,-5.8138,-5.8154,-5.8169,-5.8188,-5.8202,-5.8191,-5.7933,0,0,0,0,0,-5.7404,-5.7489,-5.7554,-5.7669,-5.7701,-5.7741,-5.779,-5.7798,-5.7864,-5.789,-5.7935,-5.7999,-5.8082,-5.8137,-5.8217,-5.8359,-5.8375,-5.8421,-5.8436,-5.8448,-5.8462,-5.854,-5.8562,-5.8333,-5.8333,-5.8333,0,0,-5.7456,-5.751,-5.7562,-5.7679,-5.7728,-5.7816,-5.7763,-5.7858,-5.7923,-5.7904,-5.8023,-5.8059,-5.8131,-5.8265,-5.8326,-5.8298,-5.8529,-5.8461,-5.847,-5.8477,-5.8553,-5.8575,-5.8594,-5.834,-5.8338,-5.8337,0,0,-5.7596,-5.7646,-5.7748,-5.7799,-5.7876,-5.7901,-5.7926,-5.7999,-5.8023,-5.8143,-5.8131,-5.8209,-5.8352,-5.8404,-5.8449,-5.8612,-5.8598,-5.8637,-5.8714,-5.8791,-5.8809,-5.8825,-5.8884,-5.8905,-5.8651,-5.8651,-5.8651,0,-5.7651,-5.7784,-5.7801,-5.7898,-5.795,-5.7938,-5.8042,-5.809,-5.8188,-5.8224,-5.8192,-5.8373,-5.842,-5.8567,-5.8606,-5.8643,-5.8672,-5.8628,-5.8805,-5.8822,-5.8837,-5.8893,-5.8915,-5.8655,-5.8655,-5.8654,-5.8654,0,-5.7848,-5.794,-5.8014,-5.811,-5.817,-5.827,-5.8302,-5.8361,-5.8364,-5.8394,-5.8517,-5.8574,-5.8666,-5.8701,-5.8704,-5.8848,-5.8829,-5.8801,-5.8743,-5.8863,-5.8916,-5.8937,-5.8661,-5.866,-5.8658,-5.8657,0,0,-5.8017,-5.8124,-5.815,-5.8195,-5.8279,-5.835,-5.845,-5.8541,-5.8591,-5.8659,-5.8743,-5.8866,-5.8841,-5.8893,-5.8902,-5.8969,-5.9095,-5.8933,-5.8935,-5.8962,-5.9258,-5.9279,-5.9304,-5.9087,-5.9091,-5.9094,-5.9253,0,-5.8166,-5.8343,-5.8362,-5.8519,-5.8605,-5.8596,-5.8683,-5.8744,-5.8774,-5.8851,-5.8884,-5.8971,-5.8931,-5.8963,-5.9029,-5.9066,-5.9155,-5.9055,-5.9165,-5.9169,-5.9148,-5.9332,-5.9354,-5.95,-5.9273,-5.9277,-5.9279,0,-5.8363,-5.8439,-5.8605,-5.8679,-5.8716,-5.8793,-5.8879,-5.8953,-5.9022,-5.9039,-5.9098,-5.9099,-5.9202,-5.914,-5.9282,-5.9213,-5.9259,-5.9285,-5.9291,-5.9302,-5.9231,-5.9348,-5.9547,-5.9569,-5.9312,-5.931,-5.9307,0,-5.847,-5.8614,-5.8732,-5.8771,-5.8859,-5.8915,-5.8954,-5.9019,-5.9073,-5.9148,-5.9184,-5.9269,-5.9316,-5.9382,-5.9406,-5.9358,-5.9547,-5.9486,-5.9564,-5.9564,-5.9604,-5.9601,-5.9814,-5.9634,-5.9633,-5.9633,-5.9632,0,-5.8635,-5.8737,-5.8782,-5.8855,-5.897,-5.8991,-5.9104,-5.9141,-5.9199,-5.9279,-5.9276,-5.9351,-5.9378,-5.9457,-5.9477,-5.9592,-5.9613,-5.963,-5.9634,-5.963,-5.9628,-5.9661,-5.9652,-5.9639,-5.9637,-5.9636,-5.9635,0,-5.8774,-5.8808,-5.8937,-5.9011,-5.9032,-5.9114,-5.9177,-5.9248,-5.9277,-5.9379,-5.9404,-5.945,-5.9544,-5.9575,-5.9687,-5.97,-5.9835,-5.983,-5.9812,-5.9813,-5.9889,-5.9882,-6.013,-6.0165,-5.9961,-5.9963,-5.9964,0,-5.8876,-5.8955,-5.9039,-5.9093,-5.9135,-5.9221,-5.9277,-5.9301,-5.9359,-5.9445,-5.9505,-5.9598,-5.9674,-5.9824,-5.9868,-5.9954,-5.9951,-6.0033,-5.9964,-5.9959,-5.9953,-5.9949,-5.9957,-6.0045,-6.0047,-6.0049,-6.005,0,-5.9055,-5.9069,-5.915,-5.9238,-5.9305,-5.9374,-5.9442,-5.9486,-5.952,-5.9585,-5.9682,-5.9741,-5.9857,-5.9949,-6.0038,-6.0078,-6.0071,-6.0072,-6.0095,-6.0092,-6.0079,-6.0088,-5.9847,-6.0066,-6.0064,-6.0063,-6.0062,-6.0062,-5.918,-5.925,-5.932,-5.9411,-5.9465,-5.9528,-5.9599,-5.9638,-5.9719,-5.9817,-5.9826,-5.993,-5.9998,-6.0117,-6.0161,-6.0243,-6.022,-6.0252,-6.0261,-6.0268,-6.0275,-6.0066,-6.0259,-6.0258,-6.0258,-6.0258,-6.0257,0,-5.9359,-5.9405,-5.9488,-5.9583,-5.9655,-5.9643,-5.9717,-5.9777,-5.9869,-5.9934,-6.001,-6.0121,-6.0211,-6.0263,-6.0353,-6.0408,-6.0407,-6.0431,-6.0427,-6.0437,-6.029,-6.0262,-6.0431,-6.0431,-6.0431,-6.0431,-6.043,-6.043,-5.9461,-5.958,-5.9602,-5.9747,-5.9792,-5.9895,-5.9938,-5.9997,-6.0049,-6.0174,-6.025,-6.0283,-6.0343,-6.0438,-6.052,-6.0533,-6.0566,-6.0593,-6.0603,-6.0465,-6.0447,-6.043,-6.0404,-6.06,-6.06,-6.0744,-6.0745,-6.0746]}]]